Starlink 34012

operational
NORAD ID: 63926 Int'l Des: 2025-098 Owner: SPXS Country: US Constellation: starlink
LEOCIRCULAR

About Starlink 34012

Description loading...

Live Position

Loading 3D Globe...

Upcoming Passes

Altitude History

Altitude vs Time

uPlot chart will show altitude changes over time

Two-Line Element Set

1 63926U 25098A 26062.04192049 .00005380 00000-0 45823-3 0 9996
2 63926 69.9999 291.3422 0002753 269.5440 90.5404 14.98338829 45599
Epoch: Mar 3, 2026 • Age: 28 hours

Current Status

Altitude 581.7 km
Velocity 7.57 km/s
Sub-Earth Point -30.39°S, 94.9°W
Launch Date May 13, 2025
Age 0.8 years
Type internet

Technical Details

Classification Payload
Mass 575.00 kg
Dry Mass 530.00 kg
Total Mass 575.00 kg
Length 0.30 m
Diameter 4.10 m
Span 29.00 m
Shape Box + pan
Manufacturer SPXS
Bus Type Starlink V2MO
Phase Status In Orbit
Owner/State SPXS/US

Large Constellations

Loading constellations...